#timestamp,LO_Frequency,Hit 
1499166015.7,286046971.6,N
1499166035.6,286046971.1,N
1499166055.4,286046973.8,N
1499166075.2,286046973.5,N
1499166095.1,286046974.0,N
1499166096.0,286046974.0,N
1499166115.8,286046971.7,N
1499166135.7,286046969.6,N
1499166155.5,286046969.8,N
1499166175.3,286046969.4,N
1499166195.2,286046969.5,N
1499166215.0,286046972.4,N
1499166215.9,286046972.4,N
1499166235.8,286046969.9,N
1499166255.6,286046970.5,N
1499166275.4,286046969.8,N
1499166295.3,286046970.8,N
1499166315.1,286046970.5,N
1499166335.8,286046969.5,N
1499166355.7,286046969.8,N
1499166375.5,286046967.8,N
1499166395.4,286046969.9,N
1499166415.2,286046968.8,N
1499166435.0,286046968.1,N
1499166435.9,286046968.1,N
1499166455.8,286046969.1,N
1499166475.6,286046968.9,N
1499166495.4,286046967.3,N
1499166515.3,286046966.4,N
1499166535.1,286046967.5,N
1499166555.9,286046967.5,N
1499166575.7,286046964.9,N
1499166595.5,286046965.2,N
1499166615.4,286046964.6,N
1499166635.2,286046965.4,N
1499166655.0,286046965.7,N
1499166655.9,286046965.7,N
1499166675.8,286046964.1,N
1499166695.6,286046962.9,N
1499166715.4,286046961.7,N
1499166735.3,286046964.3,N
1499166755.1,286046963.6,N
1499166775.9,286046964.4,N
1499166795.7,286046961.7,N
1499166815.5,286046962.3,N
1499166835.4,286046962.0,N
1499166855.2,286046961.9,N
1499166875.0,286046962.0,N
1499166875.9,286046962.0,N
1499166895.8,286046962.4,N
1499166915.6,286046960.1,N
1499166935.5,286046961.6,N
1499166955.3,286046962.2,N
1499166975.1,286046961.1,N
1499166995.9,286046960.5,N
1499167015.7,286046958.2,N
1499167035.5,286046960.6,N
1499167055.4,286046958.2,N
1499167075.2,286046961.2,N
1499167095.1,286046960.2,N
1499167096.0,286046960.2,N
1499167115.8,286046962.3,N
1499167135.6,286046962.2,N
1499167155.5,286046962.7,N
1499167175.3,286046960.3,N
1499167195.1,286046960.2,N
1499167215.9,286046958.1,N
1499167235.7,286046958.4,N
1499167255.6,286046958.4,N
1499167275.4,286046958.4,N
1499167295.2,286046956.5,N
1499167315.1,286046956.7,N
1499167316.0,286046956.7,N
1499167335.8,286046956.7,N
1499167355.7,286046956.6,N
1499167375.5,286046957.4,N
1499167395.3,286046955.0,N
1499167415.2,286046956.7,N
1499167435.0,286046956.8,N
1499167435.9,286046956.8,N
1499167455.7,286046957.1,N
1499167475.6,286046956.6,N
1499167495.4,286046956.7,N
1499167515.3,286046957.7,N
1499167535.1,286046959.6,N
1499167536.0,286046959.6,N
1499167555.8,286046957.2,N
1499167575.7,286046956.9,N
1499167595.5,286046957.0,N
1499167615.3,286046957.0,N
1499167635.2,286046958.5,N
1499167655.0,286046957.1,N
1499167655.9,286046957.1,N
1499167675.8,286046956.9,N
1499167695.6,286046957.9,N
1499167715.4,286046957.6,N
1499167735.3,286046955.8,N
1499167755.1,286046956.1,N
1499167775.8,286046956.2,N
1499167795.7,286046955.3,N
1499167815.5,286046953.8,N
1499167835.4,286046954.0,N
1499167855.2,286046953.9,N
1499167875.0,286046954.4,N
1499167875.9,286046954.4,N
1499167895.8,286046953.7,N
1499167915.6,286046954.0,N
1499167935.4,286046953.4,N
1499167955.3,286046955.6,N
1499167975.1,286046953.5,N
1499167995.9,286046952.4,N
1499168015.7,286046950.9,N
1499168035.5,286046949.6,N
1499168055.4,286046951.6,N
1499168075.2,286046947.7,N
1499168095.1,286046947.4,N
1499168096.0,286046947.4,N
1499168115.8,286046947.9,N
1499168135.6,286046943.7,N
1499168155.5,286046945.5,N
1499168175.3,286046948.0,N
1499168195.1,286046945.4,N
1499168215.9,286046948.3,N
1499168235.7,286046945.9,N
1499168255.6,286046948.2,N
1499168275.4,286046945.6,N
1499168295.2,286046945.5,N
1499168315.1,286046947.1,N
1499168316.0,286046947.1,N
1499168335.8,286046947.0,N
1499168355.6,286046947.5,Y
1499168375.5,286046983.2,N
1499168395.3,286046981.0,N
1499168415.2,286046981.3,N
1499168435.9,286046980.6,N
1499168455.7,286046983.3,N
1499168475.6,286046983.3,N
1499168495.4,286046983.6,N
1499168515.2,286046981.2,N
1499168535.1,286046981.4,N
1499168536.0,286046981.4,N
1499168555.8,286046979.0,N
1499168575.7,286046981.6,N
1499168595.5,286046981.5,N
1499168615.3,286046981.7,N
1499168635.2,286046981.5,N
1499168655.0,286046979.6,N
1499168655.9,286046979.6,N
1499168675.8,286046981.8,N
1499168695.6,286046980.0,N
1499168715.4,286046979.3,N
1499168735.3,286046979.8,N
1499168755.1,286046977.6,N
1499168775.8,286046980.0,N
1499168795.7,286046978.0,N
1499168815.5,286046978.4,N
1499168835.4,286046977.9,N
1499168855.2,286046978.3,N
1499168875.0,286046978.3,N
1499168875.9,286046978.3,N
1499168895.8,286046976.1,N
1499168915.6,286046978.5,N
1499168935.4,286046976.2,N
1499168955.3,286046976.0,N
1499168975.1,286046976.2,N
1499168995.9,286046977.0,N
1499169015.7,286046974.2,N
1499169035.5,286046976.3,N
1499169055.4,286046977.5,N
1499169075.2,286046978.0,N
1499169095.0,286046978.8,N
1499169095.9,286046978.8,N
1499169115.8,286046978.7,N
1499169135.6,286046978.2,N
1499169155.5,286046978.1,N
1499169175.3,286046980.0,N
1499169195.1,286046980.0,N
1499169215.9,286046977.6,N
1499169235.7,286046978.7,N
1499169255.5,286046978.0,N
1499169275.4,286046977.5,N
1499169295.2,286046978.5,N
1499169315.1,286046978.7,N
1499169316.0,286046978.7,N
1499169335.8,286046978.0,N
1499169355.6,286046977.5,N
1499169375.5,286046976.0,N
1499169395.3,286046978.7,N
1499169415.2,286046978.6,N
1499169435.9,286046978.1,N
1499169455.7,286046977.9,N
1499169475.6,286046978.8,N
1499169495.4,286046974.8,N
1499169515.2,286046976.6,N
1499169535.1,286046976.1,N
1499169536.0,286046976.1,N
1499169555.8,286046980.0,N
1499169575.7,286046977.5,N
1499169595.5,286046978.1,N
